When you browse on this site, cookies collect data to enhance your experience and personalize the content and advertising you see.
Visit our Privacy Policy to learn more. By continuing to use the site, you agree to this use of cookies and data.
  • In Deutschland
  • Länderverzeichnis
  • Für 7 Tage
  • Wassertemperatur
  • Satellitenkarten
  • Wetterkarte
  • Widgets
  • user-avatar
    Anmelden

    Stündliche Wetter Malahovka

    Heute, 22 Februar, Freitag

    Zeit Temperatur Niederschläge Wind Luftdruck Luftfeuchtigkeit
    00:00 -13°C° 0 mm 5 m/S 741 mmHg 81%
    01:00 -13°C° 0 mm 5 m/S 741 mmHg 80%
    02:00 -14°C° 0 mm 5 m/S 741 mmHg 80%
    03:00 -14°C° 0 mm 5 m/S 742 mmHg 80%
    04:00 -15°C° 0 mm 6 m/S 742 mmHg 80%
    05:00 -15°C° 0 mm 6 m/S 742 mmHg 80%
    06:00 -15°C° 0 mm 6 m/S 743 mmHg 81%
    07:00 -14°C° 0 mm 6 m/S 743 mmHg 82%
    08:00 -14°C° 0 mm 6 m/S 744 mmHg 83%
    09:00 -14°C° 0.1 mm 6 m/S 744 mmHg 80%
    10:00 -13°C° 0.1 mm 7 m/S 745 mmHg 78%
    11:00 -13°C° 0.1 mm 7 m/S 745 mmHg 75%
    12:00 -12°C° 0.1 mm 7 m/S 746 mmHg 75%
    13:00 -12°C° 0.1 mm 7 m/S 746 mmHg 74%
    14:00 -12°C° 0.1 mm 7 m/S 747 mmHg 74%
    15:00 -12°C° 0 mm 7 m/S 748 mmHg 75%
    16:00 -11°C° 0 mm 6 m/S 748 mmHg 76%
    17:00 -11°C° 0 mm 6 m/S 749 mmHg 78%
    18:00 -12°C° 0 mm 6 m/S 750 mmHg 78%
    19:00 -12°C° 0 mm 5 m/S 751 mmHg 79%
    20:00 -13°C° 0 mm 5 m/S 751 mmHg 80%
    21:00 -13°C° 0 mm 5 m/S 752 mmHg 81%
    22:00 -12°C° 0 mm 4 m/S 753 mmHg 82%
    23:00 -12°C° 0 mm 4 m/S 753 mmHg 83%

    Morgen, 23 Februar, Samstag

    Zeit Temperatur Niederschläge Wind Luftdruck Luftfeuchtigkeit
    00:00 -14°C° 0 mm 4 m/S 754 mmHg 84%
    01:00 -14°C° 0 mm 4 m/S 754 mmHg 85%
    02:00 -14°C° 0 mm 4 m/S 755 mmHg 86%
    03:00 -14°C° 0 mm 4 m/S 755 mmHg 87%
    04:00 -15°C° 0 mm 4 m/S 756 mmHg 89%
    05:00 -15°C° 0 mm 4 m/S 756 mmHg 90%
    06:00 -15°C° 0 mm 3 m/S 757 mmHg 91%
    07:00 -15°C° 0 mm 3 m/S 757 mmHg 92%
    08:00 -15°C° 0 mm 3 m/S 757 mmHg 92%
    09:00 -14°C° 0 mm 3 m/S 757 mmHg 89%
    10:00 -10°C° 0 mm 2 m/S 758 mmHg 85%
    11:00 -9°C° 0 mm 2 m/S 758 mmHg 81%
    12:00 -8°C° 0 mm 2 m/S 757 mmHg 80%
    13:00 -7°C° 0 mm 2 m/S 757 mmHg 79%
    14:00 -6°C° 0 mm 2 m/S 757 mmHg 78%
    15:00 -7°C° 0 mm 3 m/S 756 mmHg 80%
    16:00 -8°C° 0 mm 3 m/S 756 mmHg 82%
    17:00 -8°C° 0 mm 3 m/S 755 mmHg 84%
    18:00 -9°C° 0.1 mm 4 m/S 755 mmHg 85%
    19:00 -9°C° 0.1 mm 4 m/S 754 mmHg 86%
    20:00 -10°C° 0.1 mm 5 m/S 754 mmHg 86%
    21:00 -10°C° 0.5 mm 5 m/S 753 mmHg 88%
    22:00 -10°C° 0.5 mm 5 m/S 753 mmHg 90%
    23:00 -10°C° 0.5 mm 6 m/S 752 mmHg 92%

    übermorgen, 24 Februar, Sonntag

    Zeit Temperatur Niederschläge Wind Luftdruck Luftfeuchtigkeit
    00:00 -8°C° 0.3 mm 5 m/S 752 mmHg 92%
    01:00 -8°C° 0.3 mm 5 m/S 752 mmHg 92%
    02:00 -8°C° 0.3 mm 5 m/S 751 mmHg 92%
    03:00 -7°C° 0.1 mm 5 m/S 751 mmHg 92%
    04:00 -7°C° 0.1 mm 5 m/S 751 mmHg 93%
    05:00 -7°C° 0.1 mm 4 m/S 750 mmHg 93%
    06:00 -5°C° 0.1 mm 4 m/S 750 mmHg 93%
    07:00 -4°C° 0.1 mm 4 m/S 751 mmHg 94%
    08:00 -4°C° 0.1 mm 4 m/S 751 mmHg 94%
    09:00 -3°C° 0 mm 4 m/S 751 mmHg 94%
    10:00 -3°C° 0 mm 4 m/S 751 mmHg 94%
    11:00 -2°C° 0 mm 4 m/S 751 mmHg 95%
    12:00 -2°C° 0 mm 4 m/S 751 mmHg 95%
    13:00 -2°C° 0 mm 4 m/S 751 mmHg 96%
    14:00 -1°C° 0 mm 3 m/S 751 mmHg 96%
    15:00 -1°C° 0 mm 3 m/S 751 mmHg 95%
    16:00 -1°C° 0 mm 3 m/S 751 mmHg 95%
    17:00 -1°C° 0 mm 3 m/S 751 mmHg 94%
    18:00 -1°C° 0 mm 3 m/S 751 mmHg 95%
    19:00 -1°C° 0 mm 3 m/S 751 mmHg 95%
    20:00 -1°C° 0 mm 3 m/S 751 mmHg 96%
    21:00 -1°C° 0 mm 3 m/S 751 mmHg 96%
    22:00 -2°C° 0 mm 4 m/S 750 mmHg 96%
    23:00 -2°C° 0 mm 4 m/S 750 mmHg 96%

    25 Februar, Montag

    Zeit Temperatur Niederschläge Wind Luftdruck Luftfeuchtigkeit
    00:00 -2°C° 0 mm 4 m/S 750 mmHg 96%
    01:00 -2°C° 0 mm 4 m/S 749 mmHg 96%
    02:00 -2°C° 0 mm 4 m/S 749 mmHg 96%
    03:00 -1°C° 0 mm 4 m/S 748 mmHg 95%
    04:00 -1°C° 0 mm 4 m/S 748 mmHg 95%
    05:00 -1°C° 0 mm 5 m/S 748 mmHg 94%
    06:00 -1°C° 0 mm 5 m/S 747 mmHg 94%
    07:00 -1°C° 0 mm 4 m/S 747 mmHg 94%
    08:00 -1°C° 0 mm 4 m/S 747 mmHg 94%
    09:00 -1°C° 0 mm 5 m/S 747 mmHg 94%
    10:00 -1°C° 0 mm 5 m/S 746 mmHg 94%
    11:00 -1°C° 0 mm 5 m/S 746 mmHg 94%
    12:00 -1°C° 0 mm 5 m/S 746 mmHg 92%
    13:00 -1°C° 0 mm 5 m/S 746 mmHg 91%
    14:00 -1°C° 0 mm 5 m/S 746 mmHg 89%
    15:00 -1°C° 0 mm 5 m/S 746 mmHg 88%
    16:00 -2°C° 0 mm 5 m/S 746 mmHg 87%
    17:00 -2°C° 0 mm 4 m/S 746 mmHg 86%
    18:00 -2°C° 0 mm 4 m/S 746 mmHg 86%
    19:00 -3°C° 0 mm 4 m/S 746 mmHg 86%
    20:00 -4°C° 0 mm 5 m/S 746 mmHg 85%
    21:00 -4°C° 0 mm 5 m/S 745 mmHg 86%
    22:00 -5°C° 0 mm 5 m/S 745 mmHg 87%
    23:00 -5°C° 0 mm 5 m/S 745 mmHg 87%

    26 Februar, Dienstag

    Zeit Temperatur Niederschläge Wind Luftdruck Luftfeuchtigkeit
    00:00 -5°C° 0 mm 5 m/S 744 mmHg 89%
    01:00 -5°C° 0 mm 5 m/S 744 mmHg 90%
    02:00 -5°C° 0 mm 5 m/S 743 mmHg 91%
    03:00 -5°C° 0 mm 5 m/S 742 mmHg 91%
    04:00 -3°C° 0 mm 4 m/S 741 mmHg 91%
    05:00 -3°C° 0 mm 4 m/S 740 mmHg 92%
    06:00 -3°C° 0.5 mm 4 m/S 739 mmHg 93%
    07:00 -3°C° 0.5 mm 4 m/S 738 mmHg 94%
    08:00 -3°C° 0.5 mm 4 m/S 737 mmHg 95%
    09:00 -3°C° 1.2 mm 4 m/S 736 mmHg 95%
    10:00 -3°C° 1.2 mm 4 m/S 735 mmHg 96%
    11:00 -2°C° 1.2 mm 4 m/S 733 mmHg 96%
    12:00 -2°C° 0.8 mm 4 m/S 733 mmHg 96%
    13:00 -1°C° 0.8 mm 4 m/S 732 mmHg 96%
    14:00 -1°C° 0.8 mm 4 m/S 732 mmHg 95%
    15:00 -1°C° 0.2 mm 4 m/S 732 mmHg 95%
    16:00 -1°C° 0.2 mm 4 m/S 732 mmHg 94%
    17:00 -1°C° 0.2 mm 4 m/S 732 mmHg 94%
    18:00 -1°C° 0 mm 4 m/S 733 mmHg 92%
    19:00 -2°C° 0 mm 5 m/S 734 mmHg 90%
    20:00 -2°C° 0 mm 5 m/S 735 mmHg 88%
    21:00 -4°C° 0 mm 5 m/S 736 mmHg 86%
    22:00 -4°C° 0 mm 5 m/S 736 mmHg 84%
    23:00 -4°C° 0 mm 5 m/S 737 mmHg 82%

    27 Februar, Mittwoch

    Zeit Temperatur Niederschläge Wind Luftdruck Luftfeuchtigkeit
    00:00 -5°C° 0 mm 5 m/S 737 mmHg 84%
    01:00 -4°C° 0 mm 4 m/S 737 mmHg 85%
    02:00 -4°C° 0 mm 4 m/S 738 mmHg 87%
    03:00 -4°C° 0.1 mm 4 m/S 738 mmHg 87%
    04:00 -4°C° 0.1 mm 4 m/S 738 mmHg 87%
    05:00 -5°C° 0.1 mm 5 m/S 738 mmHg 87%
    06:00 -6°C° 0 mm 5 m/S 739 mmHg 87%
    07:00 -6°C° 0 mm 5 m/S 739 mmHg 86%
    08:00 -7°C° 0 mm 4 m/S 739 mmHg 86%
    09:00 -6°C° 0 mm 5 m/S 739 mmHg 83%
    10:00 -6°C° 0 mm 5 m/S 740 mmHg 80%
    11:00 -6°C° 0 mm 5 m/S 740 mmHg 77%
    12:00 -6°C° 0 mm 5 m/S 740 mmHg 76%
    13:00 -4°C° 0 mm 4 m/S 740 mmHg 75%
    14:00 -4°C° 0 mm 4 m/S 740 mmHg 74%
    15:00 -5°C° 0 mm 3 m/S 739 mmHg 78%
    16:00 -5°C° 0 mm 2 m/S 739 mmHg 81%
    17:00 -3°C° 0 mm 1 m/S 739 mmHg 85%
    18:00 -5°C° 0 mm 2 m/S 738 mmHg 87%
    19:00 -5°C° 0 mm 2 m/S 738 mmHg 90%
    20:00 -4°C° 0 mm 2 m/S 737 mmHg 92%
    21:00 -5°C° 0 mm 3 m/S 736 mmHg 93%
    22:00 -4°C° 0 mm 4 m/S 735 mmHg 93%
    23:00 -5°C° 0 mm 5 m/S 734 mmHg 94%
    Mehr zeigen